Regional Weather Roundup
Issued by NWS

Home | Current Version | Previous Version | Graphics & Text | Print | Product List | Glossary On
Versions: 1 2 3 4 5 6 7 8 9 10 11 12 13 14 15 16 17 18 19 20 21 22 23 24 25 26 27 28 29 30 31 32 33 34 35 36 37 38 39 40 41 42 43 44 45 46 47 48 49 50
000
ASUS45 KCYS 020110
RWRWY

WYOMING REGIONAL WEATHER ROUNDUP
NATIONAL WEATHER SERVICE CHEYENNE WY
700 PM MDT WED APR 01 2015

NOTE:  "FAIR" INDICATES FEW OR NO CLOUDS BELOW 12,000 FEET
WITH NO SIGNIFICANT WEATHER AND/OR OBSTRUCTIONS TO VISIBILITY.

WYZ001-020200-
YELLOWSTONE NATIONAL PARK

CITY           SKY/WX    TMP DP  RH WIND       PRES   REMARKS
LK YELLOWSTONE   N/A     24  14  65 MISG      29.95R
W YELLOWSTONE  NOT AVBL

$$
WYZ002>013-054>058-071-098>099-020200-
NORTHERN WYOMING

CITY           SKY/WX    TMP DP  RH WIND       PRES   REMARKS
JACKSON        CLOUDY    32  23  69 S8        29.99R WCI  25
CODY           FAIR      39  16  38 W14G21    29.92R WCI  31
GREYBULL       FAIR      50  11  20 W22G30    29.88R
WORLAND        CLOUDY    47  12  24 N3        29.87R
SHERIDAN       FAIR      45  12  26 N14       29.87R
BUFFALO        MOCLDY    43  11  27 W15       29.88R
GILLETTE       FAIR      43  12  28 NW15      29.87R
HULETT         CLOUDY    46  10  23 NW5       29.86R
NEWCASTLE      FAIR      46   9  21 NW18G28   29.86R

$$
WYZ014>020-022>026-101>103-020200-
CENTRAL WYOMING

CITY           SKY/WX    TMP DP  RH WIND       PRES   REMARKS
BIG PINEY      FAIR      38   1  21 NW17      29.97S WCI  28
PINEDALE       FAIR      34   9  35 W14       29.97S WCI  24
DUBOIS         FAIR      32  14  47 NW14      29.92R WCI  22
LANDER         NOT AVBL
RIVERTON       FAIR      46   5  18 NW20      29.89R
CASPER         FAIR      44  16  32 N13       29.86R
DOUGLAS        FAIR      44  25  47 NE9       29.87R

$$
WYZ021-027>030-104>119-020200-
SOUTHERN WYOMING

CITY           SKY/WX    TMP DP  RH WIND       PRES   REMARKS
EVANSTON       FAIR      38  -2  18 W20       30.00S WCI  28
KEMMERER       FAIR      36   3  25 W17G23    29.99R WCI  25
FORT BRIDGER   FAIR      40   4  22 NW18G26   30.01S WCI  31
ROCK SPRINGS   FAIR      42   3  19 W25G31    29.95S
DIXON          FAIR      46   3  17 NW12      29.95R
RAWLINS        FAIR      42  -2  15 W21G30    29.91R
SARATOGA       FAIR      43   3  19 NW12G18   29.92R
LARAMIE        FAIR      45   6  20 W20G29    29.85S
CHEYENNE       FAIR      53   7  15 NW20G31   29.82R
TORRINGTON     FAIR      48  26  42 N21       29.84R
PINE BLUFFS    FAIR      50  30  46 N21       29.82R

$$



USA.gov is the U.S. government's official web portal to all federal, state and local government web resources and services.